Showing default

LEMUR 2 REMY-COLTON, 43884

Orbit data source: Space-Track

LEMUR 2 REMY-COLTON, 43884 is a payload satellite owned by Spire/Lux (US) in LEO that was launched on Thu, 27 Dec 2018 UTC via a SOYUZ-2-1A launch vehicle from the Vostochny Cosmodrome (VOSTO). Payloads include a variety of satellites, spacecraft, and rockets equipped with specific instruments for various scientific and technological missions. These include communications satellites like Starlink; space stations such as the ISS; scientific satellites like the Hubble; Earth observation satellites from companies like Planet Labs, Umbra, and HawkEye 360; GPS; miniature CubeSats for education and research; and military/defense satellites.

Loading next visibility...
LEMUR 2 REMY-COLTON details
Identifier
43884, 2018-111J
Orbit
LEO
Last TLE update15 hours ago
Origin
Flag of USSpire/Lux (US)
ManufacturerSpire/Glasgow
MissionOperational Commercial Com/MetRO
Bus & MotorCUBESAT 3U, Unknown motor
Mass4.6 kg wet, 4.6 kg dry
Launch date (UTC)
2018-12-27 (6 years ago)
Launch vehicle
SOYUZ-2-1A
Launch site
Vostochny Cosmodrome (VOSTO)
Object type
Payload
Rocket body
Debris
Shape & HBRBox + 2 Pan, 0.7 m
Radar Cross Section0.124 m², Medium (>0.1 m² and < 1m²)

Expand to show TLE details & history

TLE from 15 hours ago
0 LEMUR 2 REMY-COLTON
1 43884U 18111J   24348.58421149  .00057312  00000-0  13999-2 0  9995
2 43884  97.6237 266.2618 0004018  74.3920 285.7769 15.40634921325258
Epoch: 2024-12-13T14:01Z
Definitive object data (Epoch: 2024-12-13T14:01:15.872Z)
Latitude-0.00003°
Longitude-26.80242°
Altitude446.602 km
Speed7.645 km/s
True Right ascension17h 45m 02s
True Declination0° 00' 00"
Sunlit
Object was in daylight at TLE epoch
Visualization TLE readout
Latitude-26.52345°
Longitude150.03669°
Altitude455.985 km
Speed7.637 km/s
Apparent Right ascension09h 03m 08s
Apparent Declination-66° 07' 20"
Sunlit
Object is in full shadow
Visualization observer readout
Local Sidereal Time03:29:34
Azimuth151.194° SSE
Elevation-33.437°
Doppler factor1
Orbital elements
Apogee altitude443.922 km
Perigee altitude438.442 km
Semi-major axis6,819.319 km
Eccentricity0.0004018
Inclination97.6237°
RAAN266.2618°
Arg. of periapsis74.392°
True anomaly285.73259°
Mean anomaly285.7769°
Eccentric anomaly285.75474°
Mean motion3.85418 °/min
BSTAR0.0013999
Orbital period93.41 mins
Loading maneuver chart data...
Loading historical data...
Loading historical data...
Loading historical data...
Loading historical data...
Loading historical data...
Loading historical data...
Loading historical data...

LEMUR 2 REMY-COLTON Visibility forecast

Observer location: undefined°, undefined

Span
Click to sort rows by Start time (UTC) header in descending order
Start Az.
Max El. time (UTC)
Max El. Az.
Max El.
End time (UTC)
End Az.
5 mins2024-12-14 07:43:36.078Z7.067° NNE2024-12-14 07:46:36.078Z229.694° WSW41.707°2024-12-14 07:48:36.078Z200.747° SSW
|